Regional Weather Roundup
Issued by NWS Sioux Falls, SD

Home | Current Version | Previous Version | Graphics & Text | Print | Product List | Glossary Off
Versions: 1 2 3 4 5 6 7 8 9 10 11 12 13 14 15 16 17 18 19 20 21 22 23 24 25 26 27 28 29 30 31 32 33 34 35 36 37 38 39 40 41 42 43 44 45 46 47 48 49 50

148
ASUS43 KFSD 110310
RWRFSD

WEATHER ROUNDUP FOR SE SOUTH DAKOTA/SW MINNESOTA/NW IOWA
NATIONAL WEATHER SERVICE SIOUX FALLS SD
900 PM CST SAT DEC 10 2016

NOTE: "FAIR" INDICATES FEW OR NO CLOUDS BELOW 12,000 FEET WITH NO
SIGNIFICANT WEATHER AND OR OBSTRUCTIONS TO VISIBILITY.


SDZ038>040-050-052>070-110400-
SOUTHEAST SOUTH DAKOTA

CITY           SKY/WX    TMP DP  RH WIND       PRES   REMARKS
BROOKINGS      LGT SNOW  10   7  85 E16       29.97F FOG     WCI  -7
CHAMBERLAIN    CLOUDY    21  19  93 E13       29.85F WCI   9
HURON          LGT SNOW  13  11  92 E17       29.94F FOG     WCI  -4
MADISON        LGT SNOW  14  14 100 MISG      29.96F
MITCHELL       CLOUDY    20  18  92 SE14      29.93F WCI   7
SIOUX FALLS    LGT SNOW  19  17  92 E10       29.97F FOG     WCI   7
WINNER         CLOUDY    23  19  85 E17       29.78S WCI   9
YANKTON        CLOUDY    23  18  80 E13       29.91F WCI  11
$$

MNZ071-072-080-081-089-090-097-098-110400-
SOUTHWEST MINNESOTA

CITY           SKY/WX    TMP DP  RH WIND       PRES   REMARKS
FAIRMONT       LGT SNOW  17  15  92 E12       30.10S FOG     WCI   4
JACKSON        LGT SNOW  18  14  86 E10       30.06F WCI   6
LUVERNE        CLOUDY    19  16  86 SE10G16   30.01F WCI   8
MARSHALL       LGT SNOW  11   8  88 E10       30.10F FOG     WCI  -3
MONTEVIDEO     LGT SNOW  10   9  92 SE8       30.15F WCI  -1
PIPESTONE      LGT SNOW  14  10  85 E14       29.99F WCI  -1
REDWOOD FALLS  LGT SNOW  13   8  81 E10       30.13S VSB 1   WCI   0
TRACY          LGT SNOW  13  10  90 E8        30.08S WCI   2
WINDOM         LGT SNOW  14  12  92 MISG      30.07S
WORTHINGTON    LGT SNOW  16  14  92 E13       30.02F FOG     WCI   2
$$

IAZ001>003-012>014-020>022-031-032-NEZ013-014-SDZ071-110400-
NORTHWEST IOWA

CITY           SKY/WX    TMP DP  RH WIND       PRES   REMARKS
CHEROKEE       LGT SNOW  22  21  94 SE10      30.02F WCI  12
DENISON        FLURRIES  25  21  86 SE12G18   29.96F WCI  14
ESTHERVILLE    LGT SNOW  19  18  95 SE15      30.06S FOG     WCI   5
LE MARS        CLOUDY    23  19  86 E12       30.00F WCI  12
ORANGE CITY    CLOUDY    21  19  93 SE6       29.99F WCI  14
SHELDON        LGT SNOW  21  21 100 SE13      30.00F WCI   9
SIOUX CITY     CLOUDY    28  20  71 E15       29.97F WCI  16
SPENCER        LGT SNOW  21  18  88 SE8       30.03F FOG     WCI  11
STORM LAKE     LGT SNOW  21  19  93 SE14      30.00F WCI   8
$$

ABBREVIATIONS USED IN REMARKS
   TC - TEMPERATURE IN CELSIUS
  WCI - WIND CHILL INDEX
   HX - HEAT INDEX
  VSB - VISIBILITY





USA.gov is the U.S. government's official web portal to all federal, state and local government web resources and services.